Location: El Lago
(42.5000°N, 3.0000°W)
Time: 08:25:46
(UTC+00:00)

Daily predictions for brighter satellites

Satellite Brightness Start Highest point End
(mag) Time Altitude Azimuth Time Altitude Azimuth Time Altitude Azimuth
STARLINK-1243 4.0 20:11:07 10° WSW 20:15:16 72° NNW 20:19:24 10° NE
Cosmos 2221 Rocket 4.1 20:11:37 10° SSE 20:15:52 42° E 20:20:10 10° NNE
Meteor 2-9 Rocket 4.1 20:11:42 10° N 20:17:05 80° E 20:22:23 10° SSE
SL-4 R/B 1.5 20:14:31 10° NNW 20:17:31 52° ENE 20:20:17 10° SE
STARLINK-1116 4.2 20:14:35 10° NW 20:18:39 52° NNE 20:22:42 10° ESE
STARLINK-1236 4.1 20:16:07 10° WSW 20:20:13 66° NW 20:24:22 10° NE
STARLINK-1094 4.0 20:24:31 10° NW 20:28:37 61° NNE 20:32:44 10° ESE
Cosmos 1515 4.4 20:26:23 10° SSW 20:30:08 56° W 20:33:53 10° N
STARLINK-1269 4.4 20:26:08 10° WSW 20:30:13 57° NNW 20:34:19 10° NE
Sich 1 Rocket 3.7 20:25:45 10° N 20:30:22 87° E 20:34:56 10° S
Cosmos 2278 Rocket 2.6 20:25:39 10° SSW 20:31:18 71° WNW 20:37:00 10° NNE
GPS 2-04 Rocket1 3.5 20:30:13 10° WSW 20:33:11 26° S 20:35:57 12° ESE
Resurs 01 Rocket 1.7 20:28:55 10° SSE 20:33:19 64° ENE 20:37:44 10° N
STARLINK-1117 3.8 20:29:29 10° NW 20:33:37 66° NE 20:37:34 11° ESE
Okean 2 Rocket 3.2 20:31:28 10° N 20:35:51 60° E 20:40:10 10° SSE
STARLINK-1078 3.8 20:34:28 10° NW 20:38:36 71° NE 20:42:21 12° ESE
Meteor 1-12 Rocket 4.3 20:33:31 10° N 20:39:10 66° ENE 20:44:51 10° SSE
Cosmos 371 Rocket 3.3 20:38:35 10° SSW 20:43:25 86° ESE 20:48:19 10° NNE
STARLINK-1108 3.7 20:39:26 10° NW 20:43:35 77° NE 20:47:08 14° ESE
SPOT 3 Rocket 3.9 20:38:38 10° S 20:43:44 66° WSW 20:48:53 10° NNW
Cosmos 2279 Rocket 4.1 20:37:45 10° N 20:43:58 62° E 20:50:06 10° SSE
ATLAS 3B CENTAUR R/B 4.4 20:29:45 10° SW 20:44:08 34° S 20:50:57 12° ESE
SL-4 R/B 3.8 20:41:45 10° SSE 20:44:39 16° SE 20:47:38 10° E
Cosmos 1954 Rocket 4.4 20:39:36 10° NNW 20:44:49 63° WSW 20:50:02 10° S
Cosmos 1850 Rocket 4.4 20:39:37 10° N 20:44:51 53° ENE 20:49:25 13° SE
Terra 3.8 20:45:00 10° E 20:47:35 15° ENE 20:50:11 10° NNE
Spot 2 Rocket 4.0 20:44:03 12° SE 20:48:25 46° ENE 20:53:13 10° N
STARLINK-1071 3.6 20:44:25 10° NW 20:48:34 84° NE 20:51:55 15° SE
Abrixas rocket 3.3 20:46:12 10° NW 20:48:57 35° NNE 20:51:42 10° E
SPOT 1/Viking Rocket 4.4 20:45:17 13° SE 20:49:22 35° ENE 20:54:00 10° N
NOSS 8 (H) 4.3 20:46:35 10° SSW 20:49:49 49° ESE 20:52:46 10° NE
Cosmos 2151 Rocket 3.8 20:46:06 10° N 20:50:37 60° E 20:54:34 13° SSE
STARLINK-1110 3.6 20:48:11 10° NW 20:52:21 89° NE 20:55:32 17° SE
H-2A R/B 4.5 20:49:22 10° SW 20:52:59 20° W 20:56:41 10° NW
STARLINK-1124 3.6 20:54:22 10° NW 20:58:31 83° SW 21:01:29 19° SE
Cosmos 1331 Rocket 4.4 20:57:38 10° S 21:02:26 41° ESE 21:07:16 10° NE
Aureole 2 Rocket 2.0 21:00:12 10° S 21:03:18 61° ESE 21:06:16 10° NNE
STARLINK-1122 3.6 20:59:21 10° NW 21:03:29 76° SW 21:06:15 20° SE
Cosmos 1300 Rocket 3.7 21:00:58 10° NNW 21:05:26 74° W 21:09:36 11° S
Cosmos 1437 Rocket 2.6 21:04:35 10° S 21:08:20 84° E 21:12:10 10° N
STARLINK-1126 3.7 21:04:22 10° WNW 21:08:31 70° SW 21:11:06 22° SE
Cosmos 1378 4.2 21:09:41 22° SE 21:11:02 28° E 21:14:14 10° NNE
STARLINK-1082 3.8 21:09:19 10° WNW 21:13:25 63° SW 21:15:48 23° SE
Cosmos 304 Rocket 3.7 21:10:03 10° SSW 21:14:49 81° ESE 21:19:38 10° NNE
ISS -3.1 21:12:21 10° WNW 21:15:34 43° SW 21:17:02 26° SSE
Meteor 1-15 Rocket 4.4 21:11:48 10° N 21:17:44 68° ENE 21:21:57 20° SSE
STARLINK-1100 3.9 21:14:17 10° WNW 21:18:22 58° SW 21:20:35 25° SSE
Lacrosse 5 2.5 21:14:03 10° NW 21:18:53 47° SW 21:22:07 20° SSE
NOSS 2-2 (D) 3.0 21:16:04 10° SSW 21:19:34 64° ESE 21:23:21 10° NE
CENTAUR R/B 4.3 21:16:07 10° NNW 21:23:12 34° NE 21:30:55 10° E
STARLINK-1083 4.0 21:19:19 10° WNW 21:23:21 52° SW 21:25:23 26° SSE
Cosmos 1674 Rocket 3.6 21:19:11 10° S 21:23:29 82° W 21:27:55 10° N
STARLINK-1084 4.5 21:21:37 10° NW 21:25:37 44° NNE 21:28:24 18° E
Cosmos 1378 Rocket 3.5 21:22:49 16° S 21:26:22 81° E 21:30:46 10° N
STARLINK-1125 4.1 21:24:20 10° WNW 21:28:19 47° SW 21:30:10 27° SSE
STARLINK-1098 4.4 21:26:35 10° NW 21:30:37 47° NNE 21:33:11 20° E
Cosmos 1766 4.1 21:27:46 10° N 21:31:28 36° ENE 21:32:47 28° ESE
STARLINK-1109 4.3 21:29:21 10° WNW 21:33:17 43° SW 21:34:57 28° S
IGS 5A 3.6 21:31:56 23° S 21:34:27 73° W 21:38:37 10° NNW
STARLINK-1123 4.2 21:31:32 10° NW 21:35:35 51° NNE 21:37:57 23° E
Cosmos 1943 Rocket 2.3 21:31:46 19° S 21:35:36 50° ESE 21:40:59 10° NE
Cosmos 2297 3.9 21:30:01 10° SSW 21:35:40 75° WNW 21:41:26 10° NNE
Cosmos 1833 Rocket 4.3 21:32:12 10° NW 21:36:49 27° WSW 21:41:25 10° SSW
NOSS 2-2 (E) 3.6 21:33:21 10° SW 21:36:53 63° NW 21:40:47 10° NNE
STARLINK-1091 4.4 21:34:20 10° WNW 21:38:12 39° SW 21:39:42 28° S
Landsat 7 4.0 21:36:40 21° S 21:39:47 68° WSW 21:44:33 10° NNW
STARLINK-1097 4.1 21:36:32 10° NW 21:40:37 55° NNE 21:42:45 25° E
Cosmos 2082 Rocket 3.2 21:38:33 10° NW 21:43:49 39° WSW 21:47:54 16° SSW
SeaSat 1 4.2 21:42:27 10° ENE 21:44:35 15° E 21:44:35 15° E
STARLINK-1099 4.0 21:41:30 10° NW 21:45:36 59° NNE 21:47:32 29° ESE
Cosmos 1975 Rocket 3.5 21:44:36 33° SE 21:45:56 43° E 21:50:08 10° NNE
CZ-4B DEB 4.4 21:45:24 40° S 21:46:28 72° WSW 21:49:49 10° NNW
Meteor 1-23 Rocket 4.5 21:41:14 10° SSW 21:46:55 70° W 21:52:33 10° N
BREEZE-M DEB (TANK) 4.4 21:26:56 10° WSW 21:48:54 82° NNW 21:53:41 10° ENE
STARLINK-1104 3.9 21:46:27 10° NW 21:50:34 64° NNE 21:52:18 32° ESE
Cosmos 2369 Rocket 2.4 21:49:04 28° SSE 21:51:47 49° ESE 21:57:12 10° NE
STARLINK-1144 3.7 21:51:26 10° NW 21:55:34 69° NE 21:57:05 37° ESE
SPOT 5 3.0 21:53:31 31° SSE 21:56:07 87° ENE 22:01:31 10° NNW
ATLAS CENTAUR R/B 3.6 21:59:35 13° E 21:59:35 13° E 22:00:26 10° ENE
STARLINK-1103 3.6 21:56:23 10° NW 22:00:32 75° NE 22:01:51 42° ESE
NOSS 2-2 (C) 4.3 21:58:08 10° WSW 22:01:32 44° NW 22:05:18 10° NNE
ERS-1 Rocket 3.1 21:59:40 30° S 22:02:09 71° WSW 22:07:11 10° NNW
Cosmos 1025 Rocket 4.5 22:02:58 22° E 22:02:59 22° E 22:06:16 10° NE
Okean 2 3.3 22:02:00 44° S 22:03:15 77° E 22:07:25 10° N
Cosmos 2026 Rocket 4.1 22:00:23 30° SSE 22:03:31 62° E 22:09:46 10° NNE
ATLAS 2AS CENTAUR R/B 3.3 22:00:30 25° S 22:04:45 45° ESE 22:12:14 10° NE
STARLINK-1101 3.6 22:01:22 10° NW 22:05:31 81° NE 22:06:38 47° ESE
Cosmos 1656 Rocket 4.5 22:04:50 30° ESE 22:05:33 31° ESE 22:10:24 10° NE
BREEZE M DEB (TANK) 4.0 22:01:18 10° W 22:05:48 37° NNW 22:08:01 10° NE
Meteor 1-22 Rocket 4.2 22:00:42 10° N 22:06:35 81° E 22:09:05 35° SSE
Resurs 01 Rocket 4.3 22:08:23 10° WSW 22:10:13 12° W 22:12:04 10° WNW
Cosmos 1953 4.4 22:08:05 10° NE 22:10:19 14° ENE 22:10:41 14° ENE
NOSS 3-2 (A) 4.1 22:02:47 10° NW 22:10:25 79° NE 22:15:10 29° SE
STARLINK-1102 3.5 22:06:21 10° NW 22:10:30 88° NNE 22:11:26 53° SE
Cosmos 1805 3.5 22:07:27 10° NNW 22:11:20 61° W 22:12:24 43° SSW
Cosmos 1470 3.8 22:08:10 10° NNE 22:11:38 31° ENE 22:11:51 30° E
Okean 1 Rocket 4.2 22:08:47 10° NNW 22:12:55 38° W 22:15:05 23° SW
STARLINK-1111 3.5 22:11:19 10° NW 22:15:29 85° SW 22:16:12 60° SE
Cosmos 968 Rocket 4.2 22:10:59 10° N 22:15:52 41° ENE 22:17:31 32° ESE
Cosmos 1455 Rocket 3.0 22:14:19 10° N 22:18:38 67° E 22:19:25 54° SE
ATLAS 5 CENTAUR R/B 3.2 22:12:38 10° SSW 22:21:46 23° ENE 22:22:53 10° ENE
STARLINK-1073 3.5 22:16:19 10° NW 22:20:28 79° SW 22:20:59 65° SSE
USA 238 DEB 3.8 22:15:00 10° NW 22:22:17 89° NE 22:25:51 35° SE
USA 238 3.8 22:15:05 10° NW 22:22:23 89° NE 22:25:58 35° SE
SL-8 R/B 3.6 22:18:13 10° WNW 22:23:02 79° SSW 22:24:13 51° SE
SL-4 R/B 2.2 22:19:02 10° SW 22:23:48 82° SE 22:28:40 10° ENE
Abrixas rocket 3.6 22:21:41 10° WNW 22:23:18 27° W 22:23:18 27° W
Terra 1.9 22:23:15 42° S 22:24:45 68° WSW 22:29:31 10° NNW
Cosmos 1842 3.2 22:24:07 58° SSW 22:24:47 77° W 22:28:42 10° N
Cosmos 1758 4.0 22:21:21 10° N 22:25:12 39° ENE 22:25:25 39° E
STARLINK-1121 3.5 22:21:17 10° WNW 22:25:25 72° SW 22:25:46 67° S
Meteor 2-13 Rocket 4.4 22:23:31 35° S 22:26:18 82° E 22:32:30 10° N
STARLINK-1106 3.5 22:26:18 10° WNW 22:30:24 65° SW 22:30:34 65° SSW
STARLINK-1112 3.7 22:31:16 10° WNW 22:35:19 60° SW 22:35:19 60° SW
STARLINK-1128 3.9 22:36:15 10° WNW 22:40:05 53° SW 22:40:05 53° SW
Cosmos 2263 4.1 22:39:18 38° SSW 22:41:36 88° ESE 22:47:14 10° NNE
Cosmos 1733 4.2 22:40:34 10° NNW 22:44:04 35° W 22:44:30 34° WSW
STARLINK-1113 4.1 22:41:16 10° WNW 22:44:53 47° WSW 22:44:53 47° WSW
Cosmos 1536 Rocket 3.7 22:45:44 56° E 22:45:44 56° E 22:50:00 10° NNE
Cosmos 1271 Rocket 2.6 22:49:29 84° N 22:49:29 84° N 22:53:18 10° N
Cosmos 1242 Rocket 3.0 22:49:26 56° W 22:49:29 57° WNW 22:53:08 10° N
STARLINK-1119 4.3 22:46:18 10° WNW 22:49:41 42° WSW 22:49:41 42° WSW
Meteor 1-21 4.4 22:50:09 37° SSW 22:52:23 69° WNW 22:57:59 10° N
STARLINK-60 4.3 22:52:21 38° NW 22:52:41 39° NNW 22:55:44 10° NE
COSMOS 2455 3.0 22:52:50 48° SE 22:53:44 53° ESE 22:59:34 10° NE
Spot 4 4.0 22:53:29 52° ESE 22:54:15 60° ENE 22:59:03 10° N
Cosmos 1544 Rocket 3.6 22:51:06 10° NNW 22:55:25 67° W 22:55:47 63° SW
Cosmos 1354 Rocket 4.3 22:50:11 10° NNW 22:55:26 59° ENE 22:56:35 48° ESE
Cosmos 1486 Rocket 4.1 22:52:16 10° NNW 22:57:32 67° WSW 22:58:32 54° SSW
Cosmos 1707 2.8 22:59:44 76° N 22:59:44 76° N 23:03:21 10° N
USA 215 4.3 22:53:33 10° E 22:59:38 42° NNE 23:05:43 10° NW
Cosmos 1833 4.2 22:54:11 10° NNW 22:59:51 77° ENE 23:01:10 53° SE
SL-27 R/B 3.9 23:00:19 10° NW 23:03:01 31° W 23:03:01 31° W
ATLAS 3B CENTAUR R/B 4.2 22:59:07 10° WSW 23:05:10 22° SW 23:05:10 22° SW
Cosmos 1726 2.8 23:04:16 10° N 23:07:20 47° NE 23:07:20 47° NE
ALOS 2 3.4 23:07:47 38° E 23:08:05 38° ENE 23:12:09 10° N
COSMOS 2487 3.7 23:07:56 10° N 23:10:32 37° NNE 23:10:32 37° NNE
CENTAUR R/B 3.2 23:06:33 10° NW 23:14:45 79° WSW 23:18:17 41° SSE
Meteor 1-16 Rocket 4.1 23:11:30 10° N 23:16:58 65° ENE 23:17:48 57° ESE
Cosmos 1867 3.5 23:12:18 10° NNW 23:17:47 82° NE 23:18:44 61° SE
Cosmos 1992 Rocket 4.3 23:16:13 42° SW 23:17:48 61° WNW 23:22:58 10° NNE
ATLAS 3B R/B 3.1 23:11:11 10° NNW 23:17:55 59° NE 23:21:09 32° ESE
Cosmos 1943 Rocket 4.1 23:15:01 10° WSW 23:19:36 26° NW 23:24:16 10° N
EO 1 Del DPAF 3.8 23:15:57 10° N 23:19:29 51° WNW 23:19:29 51° WNW
NOSS 3-2 (C) 4.2 23:12:30 10° NW 23:20:08 66° WSW 23:23:02 43° S
SeaSat 1 2.5 23:18:17 10° NNE 23:23:13 73° WNW 23:24:20 52° SW
NOSS 3-4 (A) 3.7 23:23:52 26° SW 23:27:16 65° NW 23:33:33 10° NNE
NOSS 3-4 (C) 3.7 23:24:01 27° SW 23:27:23 65° NW 23:33:40 10° NNE
RESURS DK-1 3.5 23:29:49 34° ENE 23:29:49 34° ENE 23:32:32 10° NE
Cosmos 2084 4.4 23:33:36 38° ENE 23:33:36 38° ENE 23:36:42 10° NE
BREEZE-M R/B 4.0 23:23:59 10° SW 23:33:39 58° SSE 23:38:09 10° ENE
Meteor 2-10 4.0 23:29:20 10° NNW 23:34:18 62° W 23:34:44 59° WSW
Cosmos 1626 4.2 23:36:00 19° ENE 23:36:00 19° ENE 23:37:49 10° NE
Cosmos 2315 Rocket 4.0 23:29:22 10° N 23:35:34 68° E 23:36:58 52° SE
Cosmos 2369 Rocket 4.0 23:31:16 10° WSW 23:36:02 27° NW 23:40:48 10° N
ATLAS CENTAUR R/B 2.0 23:35:42 49° W 23:36:13 52° NW 23:40:17 10° NNE
Cosmos 1340 Rocket 3.2 23:34:35 10° NNW 23:38:06 59° NW 23:38:06 59° NW
Cosmos 2227 Rocket 4.4 23:35:09 10° N 23:39:07 19° NE 23:43:04 10° E
Cosmos 1025 Rocket 4.3 23:39:50 29° W 23:40:22 30° WNW 23:44:12 10° NNW
S3M 4.3 23:35:20 10° NNW 23:41:20 54° W 23:42:52 44° SW
Cosmos 1908 3.9 23:39:27 10° N 23:42:29 50° NNE 23:42:29 50° NNE
Cosmos 1953 3.3 23:43:10 10° NNW 23:46:22 39° WNW 23:46:22 39° WNW
KORONAS-FOTON 4.5 23:52:25 54° N 23:52:25 54° N 23:55:27 10° N
Cosmos 2292 Rocket 4.4 23:56:48 34° NW 23:56:48 34° NW 23:59:12 10° N
